Home > Weather > Hay River > Past weeks

Flag for Canada Past Weather in Hay River, Northwest Territories, Canada — Yesterday and Last 2 Weeks

Now
64 °F

Broken clouds.


Feels Like: 64 °F
Forecast: 58 / 71 °F
Wind: 13 mph from South

Location: Hay River

Current Time: Jul 25, 2016 at 10:43:40 PM

Latest Report: Jul 25, 2016 at 10:00 PM


Visibility: 15 mi

Pressure: 29.90 "Hg

Humidity: 68%

Dew Point: 54 °F

Location of Hay RiverLocation

Past Weather in Hay River — Graph

°F

Hay River Temperature Yesterday

Maximum temperature yesterday: 55 °F (at 12:00 AM)
Minimum temperature yesterday: 52 °F (at 6:00 AM)
Average temperature yesterday: 54 °F

High & Low Weather Summary for the Past Weeks

 TemperatureHumidityPressure
High84 °F (Jul 14, 5:00 PM)100% (Jul 11, 2:00 AM)30.20 "Hg (Jul 11, 2:00 AM)
Low45 °F (Jul 21, 10:00 AM)33% (Jul 14, 6:00 PM)29.56 "Hg (Jul 24, 7:00 AM)
Average63 °F74%29.87 "Hg
* Reported Jul 10 9:00 PM — Jul 25 9:00 PM, Hay River, Weather by CustomWeather, © 2016

Note: Actual official high and low records may vary slightly from our data, if they occured in-between our weather recording intervals... More about our weather records

Advertising

Hay River Weather History for the Previous 24 Hours

Scroll right to see more
 ConditionsComfort  
Time TempWeatherWind HumidityBarometerVisibility
9:00 PM
Mon, Jul 25
66 °FPartly sunny.14 mph64%29.90 "Hg15 mi
8:00 PM68 °FBroken clouds.10 mph56%29.90 "Hg15 mi
7:00 PM70 °FPartly sunny.14 mph53%29.91 "Hg15 mi
6:00 PM70 °FBroken clouds.12 mph50%29.91 "Hg15 mi
5:00 PM68 °FPartly sunny.9 mph56%29.93 "Hg15 mi
4:00 PM68 °FPartly sunny.13 mph49%29.94 "Hg15 mi
3:00 PM70 °FScattered clouds.10 mph46%29.95 "Hg15 mi
2:00 PM68 °FScattered clouds.12 mph49%29.96 "Hg15 mi
1:00 PM66 °FPartly sunny.9 mph52%29.96 "Hg15 mi
12:00 PM64 °FScattered clouds.5 mph68%29.97 "Hg15 mi
11:00 AM63 °FPassing clouds.6 mph64%29.99 "Hg15 mi
10:00 AM59 °FScattered clouds.9 mph72%29.98 "Hg15 mi
9:00 AM57 °FPartly sunny.7 mph77%29.98 "Hg15 mi
8:00 AM54 °FPartly sunny.7 mph88%29.97 "Hg15 mi
7:00 AM50 °FPartly sunny.7 mph94%29.97 "Hg15 mi
6:00 AM50 °FPassing clouds.8 mph100%29.95 "Hg15 mi
5:00 AM52 °FPassing clouds.9 mph94%29.94 "Hg15 mi
4:00 AM50 °FPassing clouds.9 mph94%29.93 "Hg15 mi
3:00 AM50 °FPassing clouds.9 mph94%29.90 "Hg15 mi
2:00 AM50 °FPartly cloudy.8 mph100%29.90 "Hg15 mi
1:00 AM52 °FMostly cloudy.7 mph94%29.89 "Hg15 mi
12:00 AM52 °FMostly cloudy.9 mph94%29.88 "Hg15 mi
11:00 PM
Sun, Jul 24
52 °FMostly cloudy.9 mph94%29.86 "Hg15 mi
10:51 PM52 °FMostly cloudy.10 mph94%29.86 "Hg15 mi
10:00 PM54 °FLight rain. Mostly cloudy.8 mph94%29.84 "Hg15 mi
Weather by CustomWeather, © 2016

See weather overviewHow to use our weather pages